Regional Weather Roundup
Issued by NWS

Home | Current Version | Previous Version | Text Only | Print | Product List | Glossary Off
Versions: 1 2 3 4 5 6 7 8 9 10 11 12 13 14 15 16 17 18 19 20 21 22 23 24 25 26 27 28 29 30 31 32 33 34 35 36 37 38 39 40 41 42 43 44 45 46 47 48 49 50

000
ASUS45 KBOU 220307
RWRCO

WEATHER ROUNDUP FOR COLORADO
NATIONAL WEATHER SERVICE DENVER/BOULDER CO
900 PM MDT WED JUN 21 2017

NOTE: "FAIR" INDICATES FEW OR NO CLOUDS BELOW 12000 FEET WITH NO
SIGNIFICANT WEATHER AND/OR OBSTRUCTIONS TO VISIBILITY.

COZ001>005-013-030-031-220400-
...NORTHWEST COLORADO...

CITY           SKY/WX    TMP DP  RH WIND       PRES   REMARKS
CRAIG          FAIR      70  47  43 E7        30.06S
HAYDEN         FAIR      68  43  40 SE5       30.10S
MEEKER         FAIR      74  42  31 NE3       30.08R
RABBIT EARS PA FAIR      55  32  41 NW5       30.44S
STEAMBOAT SPGS FAIR      71  43  36 E3        30.12F
WALDEN         FAIR      57  43  58 SE7       30.23F
$$

COZ006>008-011-220400-
...WEST CENTRAL VALLEYS...

CITY           SKY/WX    TMP DP  RH WIND       PRES   REMARKS
GRAND JUNCTION FAIR      86  33  15 E6        29.90S
MONTROSE       FAIR      85  34  16 S13       30.03R
EAGLE          FAIR      76  40  27 E8        30.12F
RIFLE          FAIR      83  38  20 CALM      30.01R
DELTA          FAIR      88  31  13 CALM      29.96R
NUCLA          FAIR      82  30  15 E9        30.06S
$$

COZ017>023-064>068-220400-
...SOUTHWEST COLORADO...

CITY           SKY/WX    TMP DP  RH WIND       PRES   REMARKS
DURANGO        FAIR      79  31  17 N7        30.07S
CORTEZ         FAIR      72  46  39 SE6       30.00S
PAGOSA SPRINGS FAIR      71  32  23 CALM      30.19S
TELLURIDE      FAIR      71  30  22 W7        30.36R
WOLF CREEK PAS FAIR      55  28  35 W5        30.62S
$$

COZ009-010-012-014-032>034-037-058>063-220400-
...CENTRAL COLORADO...

CITY           SKY/WX    TMP DP  RH WIND       PRES   REMARKS
ASPEN          FAIR      63  44  50 S7        30.23R
BUENA VISTA    FAIR      73  27  18 W6        30.22R
COPPER MTN     FAIR      54  32  43 W8        30.59S
BERTHOUD PASS  FAIR      46  34  61 W22G33    30.60S
COTTONWOOD PAS FAIR      68  23  18 W6        30.39S
GUNNISON       FAIR      75  36  24 NW6       30.21R
KREMMLING      NOT AVBL
LEADVILLE      FAIR      60  32  34 N6        30.40R
MONARCH PASS   FAIR      55  27  33 N10       30.69R
SALIDA         FAIR      78  34  19 SE9       30.24R
SUNLIGHT       FAIR      57  28  33 SW6       30.50S
WILKERSON PASS FAIR      55  28  35 N12G21    30.53F
$$

COZ069>075-220400-
...SAN LUIS VALLEY/SANGRE DE CRISTO MOUNTAINS...

CITY           SKY/WX    TMP DP  RH WIND       PRES   REMARKS
ALAMOSA        FAIR      68  39  34 SW7       30.15R
DEL NORTE      FAIR      72  28  19 NW8       30.20R
LA VETA PASS   FAIR      61  34  36 MISG      30.50S
SAGUACHE       FAIR      70  28  21 N9        30.20R
$$

COZ035-036-038>040-220400-
...NORTHERN COLORADO FRONT RANGE...

CITY           SKY/WX    TMP DP  RH WIND       PRES   REMARKS
DENVER INTL AP MOCLDY    86  33  15 NW10      29.97S
DMNS CITY PARK   N/A     82  39  21 S5G13     29.97F
AURORA         MOCLDY    82  39  21 W14       30.00R
FRONT RANGE AP FAIR      77  36  22 W12       29.98S
ERIE MUNI ARPT FAIR      85  30  13 W12       29.93F
BOULDER MUN AP FAIR      86  34  15 SW7G18    29.95S
CENTENNIAL     FAIR      82  37  20 W15G21    30.02R
BROOMFIELD     MOCLDY    82  36  18 W13       29.99F
FORT COLLINS   FAIR      81  40  23 S5        29.91S
LONGMONT       FAIR      86  34  15 SW15      29.94S
$$

COZ041-046-047-076>085-087-088-220400-
...PIKES PEAK/PALMER DIVIDE AND SOUTHERN FOOTHILLS...

CITY           SKY/WX    TMP DP  RH WIND       PRES   REMARKS
COLO. SPRINGS  FAIR      77  42  28 NW5       30.06R
A. F. ACADEMY  FAIR      71  44  37 N8        30.09R
SCHRIEVER AFB  NOT AVBL
CHEYENNE MTN   NOT AVBL
ELLICOTT       FAIR     N/A N/A N/A CALM      30.03R
FALCON           N/A     70  39  32 W16       30.12R
FORT CARSON    FAIR      78  39  24 W10       30.01F
LIMON          FAIR      73  36  25 NW6       29.95R
MONUMENT HILL  FAIR      64  39  39 W8        30.16R
CANON CITY     CLEAR     82  43  24 N7        29.99R
WALSENBURG     FAIR      72  48  43 W8        30.04R
TRINIDAD       FAIR      74  46  36 SE5       30.01R
$$

COZ042>045-048>051-090-091-220400-
...NORTHEAST COLORADO...

CITY           SKY/WX    TMP DP  RH WIND       PRES   REMARKS
GREELEY ARPT   FAIR      81  41  24 W6        29.88F
AKRON          FAIR      81  38  21 E3        29.87S
BURLINGTON     FAIR      73  55  53 CALM      29.84R
WRAY           FAIR      77  50  38 CALM      29.78S
YUMA           NOT AVBL
STERLING       FAIR      77  46  33 NW3       29.80R
HOLYOKE        NOT AVBL
FORT MORGAN    FAIR      76  38  24 W8        29.88R
$$

COZ086-089-092>099-220400-
...SOUTHEAST COLORADO...

CITY           SKY/WX    TMP DP  RH WIND       PRES   REMARKS
PUEBLO         FAIR      74  52  46 NW8       29.90S
LA JUNTA       FAIR      81  48  31 W10       29.86R
LAMAR          FAIR      77  47  34 CALM      29.80R
SPRINGFIELD      N/A     76  49  38 W9        29.86R
$$



USA.gov is the U.S. government's official web portal to all federal, state and local government web resources and services.